Location: Meanaryar
(48.4161°N, 4.7315°W)
Time: 01:24:18
(UTC+00:00)

Cosmos 1844 - Pass Details

Date: 18 September 2020
Orbit: 824 x 866 km, 70.9° (Epoch: 31 October)

Event Time Altitude Azimuth Distance (km) Brightness Sun altitude
Rises 21:08:52 0° 213° (SSW) 3,412 6.8 -26.3°
Reaches altitude 10° 21:11:20 10° 215° (SW) 2,474 6.1 -26.6°
Maximum altitude 21:17:01 72° 300° (WNW) 890 3.8 -27.3°
Drops below altitude 10° 21:22:40 10° 25° (NNE) 2,461 6.3 -28.1°
Sets 21:25:07 0° 28° (NNE) 3,393 7.0 -28.4°
